TimeAST,TemperatureF,Dew PointF,Humidity,Sea Level PressureIn,VisibilityMPH,Wind Direction,Wind SpeedMPH,Gust SpeedMPH,PrecipitationIn,Events,Conditions,WindDirDegrees,DateUTC
12:00 AM,84.2,75.2,74,29.98,6.2,ENE,12.7,-,N/A,,Scattered Clouds,70,2013-08-22 04:00:00
1:00 AM,82.4,75.2,79,29.98,6.2,ENE,11.5,-,N/A,,Scattered Clouds,70,2013-08-22 05:00:00
2:00 AM,83,74,68,29.96,19,East,10.4,,,,,80,2013-08-22 06:00:00
2:00 AM,82.4,73.4,74,29.95,6.2,East,10.4,-,N/A,,Partly Cloudy,80,2013-08-22 06:00:00
3:00 AM,82.4,73.4,74,29.92,6.2,ENE,9.2,-,N/A,,Scattered Clouds,60,2013-08-22 07:00:00
4:00 AM,82.4,75.2,79,29.95,6.2,ENE,9.2,-,N/A,,Partly Cloudy,70,2013-08-22 08:00:00
5:00 AM,82,73,68,29.95,19,East,9.2,,,,Scattered Clouds,80,2013-08-22 09:00:00
5:00 AM,82.4,73.4,74,29.95,6.2,East,9.2,-,N/A,,Partly Cloudy,80,2013-08-22 09:00:00
6:00 AM,82.4,73.4,74,29.95,6.2,ENE,9.2,-,N/A,,Partly Cloudy,70,2013-08-22 10:00:00
7:00 AM,82.4,75.2,79,29.95,6.2,ENE,9.2,-,N/A,,Partly Cloudy,70,2013-08-22 11:00:00
8:00 AM,84.2,75.2,74,29.98,6.2,ENE,11.5,-,N/A,,Partly Cloudy,70,2013-08-22 12:00:00
9:00 AM,86.0,75.2,70,29.98,6.2,ENE,10.4,-,N/A,,Partly Cloudy,70,2013-08-22 13:00:00
10:00 AM,87.8,77.0,70,29.98,6.2,ENE,13.8,-,N/A,,Partly Cloudy,60,2013-08-22 14:00:00
11:00 AM,87,76,63,30.00,25,ENE,11.5,,,Rain,Light Rain Showers,70,2013-08-22 15:00:00
11:00 AM,87.8,75.2,66,29.98,6.2,NE,11.5,-,N/A,Rain,Light Rain Showers,50,2013-08-22 15:00:00
12:00 PM,82.4,77.0,84,29.98,6.2,East,13.8,-,N/A,Rain,Light Rain Showers,80,2013-08-22 16:00:00
1:00 PM,87.8,77.0,70,29.98,6.2,ENE,11.5,-,N/A,Rain,Light Rain Showers,60,2013-08-22 17:00:00
2:00 PM,87,78,69,29.96,12,ENE,12.7,,,Rain,Light Rain Showers,70,2013-08-22 18:00:00
2:00 PM,86.0,77.0,74,29.95,6.2,ENE,12.7,-,N/A,Rain,Light Rain Showers,60,2013-08-22 18:00:00
3:00 PM,87.8,77.0,70,29.92,6.2,ENE,13.8,-,N/A,,Scattered Clouds,60,2013-08-22 19:00:00
4:00 PM,86.0,77.0,74,29.92,6.2,ENE,12.7,-,N/A,,Scattered Clouds,60,2013-08-22 20:00:00
5:00 PM,86,77,67,29.94,11,ENE,12.7,,,,Partly Cloudy,70,2013-08-22 21:00:00
5:00 PM,86.0,77.0,74,29.92,6.2,ENE,13.8,-,N/A,,Scattered Clouds,60,2013-08-22 21:00:00
5:24 PM,84.2,77.0,79,29.92,1.9,East,10.4,21.9,N/A,Rain,Rain Showers,80,2013-08-22 21:24:00
6:00 PM,82.4,78.8,89,29.92,6.2,ENE,11.5,-,N/A,,Partly Cloudy,60,2013-08-22 22:00:00
7:00 PM,82.4,77.0,84,29.95,6.2,ENE,12.7,-,N/A,,Mostly Cloudy,60,2013-08-22 23:00:00
8:00 PM,82.4,77.0,84,29.95,6.2,ENE,13.8,-,N/A,,Mostly Cloudy,60,2013-08-23 00:00:00
9:00 PM,82.4,77.0,84,29.95,6.2,East,17.3,-,N/A,,Partly Cloudy,80,2013-08-23 01:00:00
10:00 PM,82.4,75.2,79,29.95,6.2,East,15.0,-,N/A,,Partly Cloudy,90,2013-08-23 02:00:00
11:00 PM,82.4,77.0,84,29.95,6.2,East,10.4,-,N/A,,Scattered Clouds,90,2013-08-23 03:00:00